| time (UTC) | temp C | wind direction | speed KPH | gust KPH | rain 1hr cm | rain 24hr cm | rain mn cm | humidity % | barometer mb |
| 20260509173134 | 12 | 45 | 0.0 | 0.0 | 0.00 | 0.00 | 0.00 | 88 | 947.0 |
| 20260509172634 | 13 | 45 | 0.0 | 0.0 | 0.00 | 0.00 | 0.00 | 88 | 947.0 |
| 20260509172135 | 13 | 45 | 0.0 | 0.0 | 0.00 | 0.00 | 0.00 | 88 | 947.0 |
| 20260509171644 | 13 | 45 | 0.0 | 0.0 | 0.00 | 0.00 | 0.00 | 88 | 947.0 |
| 20260509171141 | 13 | 45 | 0.0 | 0.0 | 0.00 | 0.00 | 0.00 | 88 | 947.0 |
| 20260509170634 | 13 | 45 | 0.0 | 0.0 | 0.00 | 0.00 | 0.00 | 88 | 947.0 |
| 20260509170134 | 13 | 45 | 0.0 | 0.0 | 0.00 | 0.00 | 0.00 | 87 | 947.0 |
| 20260509165653 | 13 | 45 | 0.0 | 0.0 | 0.00 | 0.00 | 0.00 | 87 | 947.0 |
| 20260509165220 | 13 | 45 | 0.0 | 0.0 | 0.00 | 0.00 | 0.00 | 87 | 947.0 |
| 20260509164635 | 13 | 45 | 0.0 | 0.0 | 0.00 | 0.00 | 0.00 | 87 | 947.0 |
| 20260509164133 | 13 | 45 | 0.0 | 0.0 | 0.00 | 0.00 | 0.00 | 87 | 947.0 |
| 20260509163635 | 13 | 45 | 0.0 | 0.0 | 0.00 | 0.00 | 0.00 | 87 | 947.0 |
| 20260509163141 | 13 | 45 | 0.0 | 0.0 | 0.00 | 0.00 | 0.00 | 87 | 947.0 |
| 20260509162637 | 13 | 45 | 0.0 | 0.0 | 0.00 | 0.00 | 0.00 | 87 | 947.0 |
| 20260509162133 | 13 | 45 | 0.0 | 0.0 | 0.00 | 0.00 | 0.00 | 87 | 947.0 |
| 20260509161634 | 13 | 45 | 0.0 | 0.0 | 0.00 | 0.00 | 0.00 | 87 | 947.0 |
| 20260509161151 | 13 | 45 | 0.0 | 0.0 | 0.00 | 0.00 | 0.00 | 87 | 947.0 |
| 20260509160717 | 13 | 45 | 0.0 | 0.0 | 0.00 | 0.00 | 0.00 | 86 | 947.0 |
| 20260509160134 | 14 | 45 | 0.0 | 0.0 | 0.00 | 0.00 | 0.00 | 86 | 947.0 |
| 20260509155633 | 14 | 45 | 0.0 | 0.0 | 0.00 | 0.00 | 0.00 | 86 | 947.0 |
| 20260509155135 | 14 | 45 | 0.0 | 0.0 | 0.00 | 0.00 | 0.00 | 86 | 947.0 |
| 20260509154638 | 14 | 45 | 0.0 | 0.0 | 0.00 | 0.00 | 0.00 | 86 | 947.0 |
| 20260509154138 | 14 | 45 | 0.0 | 0.0 | 0.00 | 0.00 | 0.00 | 86 | 947.0 |
| 20260509153633 | 15 | 45 | 0.0 | 0.0 | 0.00 | 0.00 | 0.00 | 86 | 947.0 |
| 20260509153134 | 15 | 45 | 0.0 | 0.0 | 0.00 | 0.00 | 0.00 | 86 | 947.0 |
| 20260509152647 | 15 | 45 | 0.0 | 0.0 | 0.00 | 0.00 | 0.00 | 87 | 947.0 |
| 20260509152214 | 15 | 45 | 0.0 | 0.0 | 0.00 | 0.00 | 0.00 | 86 | 947.0 |
| 20260509151634 | 15 | 45 | 0.0 | 0.0 | 0.00 | 0.00 | 0.00 | 86 | 947.0 |
| 20260509151133 | 15 | 45 | 0.0 | 0.0 | 0.00 | 0.00 | 0.00 | 86 | 947.0 |
| 20260509150634 | 15 | 45 | 0.0 | 0.0 | 0.00 | 0.00 | 0.00 | 86 | 947.0 |
| 20260509150136 | 15 | 45 | 0.0 | 0.0 | 0.00 | 0.00 | 0.00 | 86 | 947.0 |
| 20260509145634 | 15 | 45 | 0.0 | 0.0 | 0.00 | 0.00 | 0.00 | 86 | 947.0 |
| 20260509045418 | 13 | 45 | 0.0 | 3.2 | 0.00 | 0.00 | 0.00 | 88 | 948.0 |
| 20260509044418 | 13 | 45 | 3.2 | 4.8 | 0.00 | 0.00 | 0.00 | 88 | 948.0 |
| 20260509043918 | 13 | 45 | 0.0 | 4.8 | 0.00 | 0.00 | 0.00 | 88 | 948.0 |
| 20260509043417 | 13 | 45 | 4.8 | 4.8 | 0.00 | 0.00 | 0.00 | 88 | 948.0 |
| 20260509042926 | 13 | 45 | 0.0 | 3.2 | 0.00 | 0.00 | 0.00 | 88 | 948.0 |
| 20260509041918 | 12 | 45 | 0.0 | 1.6 | 0.00 | 0.00 | 0.00 | 88 | 947.0 |
| 20260509041432 | 12 | 45 | 0.0 | 3.2 | 0.00 | 0.00 | 0.00 | 88 | 948.0 |
| 20260509035917 | 12 | 45 | 0.0 | 0.0 | 0.00 | 0.00 | 0.00 | 88 | 948.0 |
| 20260509030922 | 12 | 45 | 0.0 | 0.0 | 0.00 | 0.00 | 0.00 | 88 | 947.0 |
| 20260509025918 | 12 | 45 | 0.0 | 3.2 | 0.00 | 0.00 | 0.00 | 88 | 947.0 |
| 20260509025420 | 12 | 0 | 0.0 | 3.2 | 0.00 | 0.00 | 0.00 | 88 | 947.0 |
| 20260509024927 | 12 | 45 | 1.6 | 1.6 | 0.00 | 0.00 | 0.00 | 88 | 947.0 |
| 20260509021420 | 12 | 45 | 0.0 | 0.0 | 0.00 | 0.00 | 0.00 | 88 | 947.0 |
| 20260509020944 | 12 | 45 | 0.0 | 0.0 | 0.00 | 0.00 | 0.00 | 88 | 947.0 |
| 20260509020418 | 12 | 45 | 0.0 | 0.0 | 0.00 | 0.00 | 0.00 | 88 | 947.0 |
| 20260509015917 | 12 | 45 | 0.0 | 0.0 | 0.00 | 0.00 | 0.00 | 88 | 947.0 |
| 20260509015417 | 12 | 45 | 0.0 | 0.0 | 0.00 | 0.00 | 0.00 | 88 | 947.0 |
| 20260509014421 | 12 | 45 | 0.0 | 0.0 | 0.00 | 0.00 | 0.00 | 87 | 947.0 |
| 20260509013918 | 12 | 45 | 0.0 | 0.0 | 0.00 | 0.00 | 0.00 | 87 | 947.0 |
| 20260509013426 | 12 | 45 | 0.0 | 0.0 | 0.00 | 0.00 | 0.00 | 87 | 947.0 |
| 20260509012917 | 12 | 45 | 0.0 | 0.0 | 0.00 | 0.00 | 0.00 | 87 | 947.0 |
| 20260509012423 | 12 | 45 | 0.0 | 0.0 | 0.00 | 0.00 | 0.00 | 87 | 947.0 |
| 20260509011918 | 12 | 45 | 0.0 | 0.0 | 0.00 | 0.00 | 0.00 | 87 | 947.0 |
| 20260509011421 | 12 | 45 | 0.0 | 0.0 | 0.00 | 0.00 | 0.00 | 87 | 947.0 |
| 20260509010918 | 12 | 45 | 0.0 | 0.0 | 0.00 | 0.00 | 0.00 | 87 | 947.0 |
| 20260509010427 | 12 | 45 | 0.0 | 0.0 | 0.00 | 0.00 | 0.00 | 87 | 947.0 |
| 20260509005917 | 12 | 45 | 0.0 | 0.0 | 0.00 | 0.00 | 0.00 | 87 | 947.0 |
| 20260509005418 | 12 | 45 | 0.0 | 0.0 | 0.00 | 0.00 | 0.00 | 87 | 947.0 |
| 20260509004932 | 12 | 45 | 0.0 | 0.0 | 0.00 | 0.00 | 0.00 | 87 | 947.0 |
| 20260509003418 | 12 | 45 | 0.0 | 0.0 | 0.00 | 0.00 | 0.00 | 87 | 947.0 |
| 20260509002438 | 12 | 45 | 0.0 | 0.0 | 0.00 | 0.00 | 0.00 | 87 | 947.0 |
| 20260509001919 | 12 | 45 | 0.0 | 0.0 | 0.00 | 0.00 | 0.00 | 87 | 947.0 |
| 20260509001423 | 12 | 45 | 0.0 | 0.0 | 0.00 | 0.00 | 0.00 | 87 | 947.0 |
| 20260508235421 | 12 | 45 | 0.0 | 0.0 | 0.00 | 0.00 | 0.00 | 87 | 947.0 |
| 20260508234421 | 12 | 45 | 0.0 | 0.0 | 0.00 | 0.00 | 0.00 | 87 | 947.0 |
| 20260508233923 | 12 | 45 | 0.0 | 0.0 | 0.00 | 0.00 | 0.00 | 87 | 947.0 |
| 20260508233420 | 13 | 45 | 0.0 | 0.0 | 0.00 | 0.00 | 0.00 | 87 | 947.0 |
| 20260508232924 | 12 | 0 | 0.0 | 0.0 | 0.00 | 0.00 | 0.00 | 87 | 947.0 |
| 20260508231919 | 12 | 45 | 0.0 | 0.0 | 0.00 | 0.00 | 0.00 | 87 | 947.0 |
| 20260508230919 | 12 | 45 | 0.0 | 0.0 | 0.00 | 0.00 | 0.00 | 87 | 947.0 |
| 20260508230432 | 12 | 45 | 0.0 | 0.0 | 0.00 | 0.00 | 0.00 | 87 | 947.0 |
| 20260508225919 | 12 | 45 | 0.0 | 0.0 | 0.00 | 0.00 | 0.00 | 86 | 947.0 |
| 20260508225423 | 13 | 45 | 0.0 | 0.0 | 0.00 | 0.00 | 0.00 | 86 | 947.0 |
| 20260508224438 | 13 | 45 | 0.0 | 0.0 | 0.00 | 0.00 | 0.00 | 86 | 947.0 |
| 20260508223921 | 13 | 45 | 0.0 | 0.0 | 0.00 | 0.00 | 0.00 | 86 | 947.0 |
| 20260508223419 | 13 | 45 | 0.0 | 0.0 | 0.00 | 0.00 | 0.00 | 86 | 947.0 |
| 20260508222420 | 13 | 45 | 0.0 | 0.0 | 0.00 | 0.00 | 0.00 | 86 | 947.0 |
| 20260508220920 | 13 | 45 | 0.0 | 0.0 | 0.00 | 0.00 | 0.00 | 86 | 947.0 |
| 20260508215924 | 13 | 45 | 0.0 | 0.0 | 0.00 | 0.00 | 0.00 | 86 | 947.0 |
| 20260508215420 | 13 | 45 | 0.0 | 0.0 | 0.00 | 0.00 | 0.00 | 86 | 947.0 |
| 20260508214926 | 13 | 45 | 0.0 | 0.0 | 0.00 | 0.00 | 0.00 | 86 | 947.0 |
| 20260508213929 | 13 | 45 | 0.0 | 0.0 | 0.00 | 0.00 | 0.00 | 85 | 947.0 |
| 20260508213422 | 13 | 45 | 0.0 | 0.0 | 0.00 | 0.00 | 0.00 | 85 | 947.0 |
| 20260508212423 | 13 | 45 | 0.0 | 3.2 | 0.00 | 0.00 | 0.00 | 85 | 947.0 |
| 20260508211934 | 13 | 45 | 0.0 | 3.2 | 0.00 | 0.00 | 0.00 | 85 | 947.0 |
| 20260508211422 | 13 | 45 | 3.2 | 3.2 | 0.00 | 0.00 | 0.00 | 85 | 947.0 |
| 20260508210921 | 13 | 45 | 0.0 | 0.0 | 0.00 | 0.00 | 0.00 | 85 | 947.0 |
| 20260508210442 | 13 | 45 | 0.0 | 0.0 | 0.00 | 0.00 | 0.00 | 85 | 947.0 |
| 20260508205421 | 13 | 45 | 0.0 | 3.2 | 0.00 | 0.00 | 0.00 | 85 | 948.0 |
| 20260508204921 | 13 | 45 | 0.0 | 3.2 | 0.00 | 0.00 | 0.00 | 85 | 947.0 |
| 20260508203923 | 13 | 45 | 0.0 | 0.0 | 0.00 | 0.00 | 0.00 | 85 | 947.0 |
| 20260508203423 | 13 | 45 | 0.0 | 0.0 | 0.00 | 0.00 | 0.00 | 85 | 948.0 |
| 20260508202921 | 13 | 45 | 0.0 | 0.0 | 0.00 | 0.00 | 0.00 | 85 | 947.0 |
| 20260508202424 | 13 | 45 | 0.0 | 0.0 | 0.00 | 0.00 | 0.00 | 85 | 947.0 |
| 20260508201926 | 13 | 45 | 0.0 | 0.0 | 0.00 | 0.00 | 0.00 | 85 | 947.0 |
| 20260508201427 | 13 | 45 | 0.0 | 0.0 | 0.00 | 0.00 | 0.00 | 85 | 947.0 |
| 20260508200923 | 13 | 45 | 0.0 | 0.0 | 0.00 | 0.00 | 0.00 | 85 | 947.0 |
| 20260508200422 | 13 | 45 | 0.0 | 0.0 | 0.00 | 0.00 | 0.00 | 84 | 947.0 |
| 20260508195936 | 13 | 45 | 0.0 | 0.0 | 0.00 | 0.00 | 0.00 | 85 | 947.0 |
| 20260508195502 | 13 | 45 | 0.0 | 0.0 | 0.00 | 0.00 | 0.00 | 84 | 947.0 |
| 20260508193422 | 13 | 45 | 0.0 | 3.2 | 0.00 | 0.00 | 0.00 | 84 | 947.0 |
| 20260508191943 | 14 | 45 | 0.0 | 0.0 | 0.00 | 0.00 | 0.00 | 84 | 947.0 |
| 20260508191424 | 14 | 45 | 0.0 | 0.0 | 0.00 | 0.00 | 0.00 | 84 | 947.0 |
| 20260508190952 | 14 | 45 | 0.0 | 0.0 | 0.00 | 0.00 | 0.00 | 84 | 947.0 |
| 20260508190423 | 13 | 45 | 0.0 | 0.0 | 0.00 | 0.00 | 0.00 | 84 | 947.0 |
| 20260508185923 | 14 | 45 | 0.0 | 0.0 | 0.00 | 0.00 | 0.00 | 84 | 947.0 |
| 20260508185429 | 13 | 45 | 0.0 | 0.0 | 0.00 | 0.00 | 0.00 | 84 | 947.0 |
| 20260508184927 | 13 | 45 | 0.0 | 0.0 | 0.00 | 0.00 | 0.00 | 84 | 947.0 |
| 20260508184423 | 13 | 45 | 0.0 | 0.0 | 0.00 | 0.00 | 0.00 | 83 | 947.0 |
| 20260508182924 | 14 | 45 | 0.0 | 3.2 | 0.00 | 0.00 | 0.00 | 83 | 947.0 |
| 20260508182433 | 14 | 45 | 0.0 | 3.2 | 0.00 | 0.00 | 0.00 | 83 | 946.0 |
| 20260508181438 | 14 | 45 | 0.0 | 0.0 | 0.00 | 0.00 | 0.00 | 83 | 946.0 |
| 20260508180924 | 15 | 45 | 0.0 | 4.8 | 0.00 | 0.00 | 0.00 | 83 | 946.0 |
| 20260508180425 | 15 | 45 | 0.0 | 6.4 | 0.00 | 0.00 | 0.00 | 83 | 946.0 |
| 20260508175443 | 15 | 45 | 0.0 | 6.4 | 0.00 | 0.00 | 0.00 | 82 | 946.0 |
| 20260508174924 | 15 | 45 | 3.2 | 3.2 | 0.00 | 0.00 | 0.00 | 82 | 946.0 |
| 20260508174425 | 15 | 45 | 0.0 | 0.0 | 0.00 | 0.00 | 0.00 | 82 | 946.0 |
| 20260508173949 | 15 | 45 | 0.0 | 0.0 | 0.00 | 0.00 | 0.00 | 82 | 946.0 |